User: anonymous   Login
Location: Innsbruck
(47.2657°N, 11.3914°E)
Time: 18:13:20
(UTC+01:00)
Language:

QB50P2 - Orbit

View from above orbital plane
View from above orbital plane
View from above satellite
View from above satellite

Ground track
Ground track

The orbit data is extracted from the following two-line orbital elements,

1 40032U 14033Y   21337.05331730  .00000761  00000-0  86560-4 0  9991
2 40032  97.9254 264.3292 0011489 348.7840  11.3119 14.89165493404905
Epoch (UTC): 03 December 2021 01:16:46
Eccentricity: 0.0011489
inclination: 97.9254°
perigee height: 592 km
apogee height: 608 km
right ascension of ascending node: 264.3292°
argument of perigee: 348.7840°
revolutions per day: 14.89165493
mean anomaly at epoch: 11.3119°
orbit number at epoch: 40490

The dashed part of the orbit path shows where the satellite is in the earth's shadow,  

DLR